CDT,Max TemperatureF,Mean TemperatureF,Min TemperatureF,Max Dew PointF,MeanDew PointF,Min DewpointF,Max Humidity, Mean Humidity, Min Humidity, Max Sea Level PressureIn, Mean Sea Level PressureIn, Min Sea Level PressureIn, Max VisibilityMiles, Mean VisibilityMiles, Min VisibilityMiles, Max Wind SpeedMPH, Mean Wind SpeedMPH, Max Gust SpeedMPH,PrecipitationIn, CloudCover, Events, WindDirDegrees
2014-3-1,16,8,-1,4,-4,-10,87,76,65,30.65,30.48,30.26,10,4,0,23,14,28,0.17,8,Snow,10
2014-3-2,2,-4,-10,-11,-15,-18,72,62,51,30.74,30.68,30.64,10,10,10,20,11,22,0.00,1,,323
2014-3-3,17,2,-14,4,-5,-18,79,65,51,30.68,30.43,30.18,10,10,10,22,9,28,0.00,2,,151
2014-3-4,27,16,5,15,8,0,80,68,56,30.22,30.13,30.06,10,10,10,16,9,20,0.00,2,,99
2014-3-5,29,23,17,20,16,12,88,76,63,30.40,30.33,30.24,10,9,5,17,9,22,0.00,5,,84
2014-3-6,41,33,24,31,25,20,92,79,65,30.32,30.04,29.79,9,5,2,26,15,32,0.00,5,,164
2014-3-7,39,31,23,32,25,15,89,74,59,30.28,29.99,29.74,10,8,6,29,17,33,T,5,,355
2014-3-8,39,27,15,17,15,11,84,64,44,30.41,30.34,30.26,10,10,10,21,8,24,0.00,0,,5
2014-3-9,72,47,21,32,27,18,84,53,22,30.24,29.92,29.75,10,10,10,24,11,33,0.00,0,,184
2014-3-10,74,54,33,46,35,27,80,54,27,29.81,29.72,29.59,10,10,10,16,6,22,0.00,0,,7
2014-3-11,50,40,30,43,35,27,85,74,62,30.14,29.81,29.54,10,10,4,32,18,44,0.13,4,Rain,34
2014-3-12,52,40,27,34,29,26,92,67,41,30.19,30.14,30.06,10,10,7,21,7,26,0.00,4,,23
2014-3-13,69,46,24,33,26,22,92,54,11,30.06,29.87,29.62,10,9,7,21,9,32,0.00,0,,199
2014-3-14,57,43,29,32,25,17,75,49,22,29.97,29.84,29.62,10,10,10,29,14,36,0.00,0,,327
2014-3-15,43,36,29,30,24,20,85,62,39,30.37,30.07,29.89,10,10,6,28,16,35,T,4,Snow,69
2014-3-16,40,30,20,19,12,8,71,50,29,30.47,30.32,30.06,10,10,10,17,9,22,0.00,1,,70
2014-3-17,59,44,28,27,21,16,63,45,26,30.02,29.63,29.40,10,10,10,23,16,30,0.00,1,,169
2014-3-18,54,43,31,32,28,26,85,62,38,29.87,29.61,29.42,10,8,2,32,16,38,0.01,5,Snow,39
2014-3-19,51,38,24,31,27,23,92,62,32,30.09,30.01,29.86,10,10,6,29,12,34,0.00,4,,309
2014-3-20,61,41,20,31,24,18,96,61,25,30.06,29.94,29.80,10,10,9,110,7,17,0.00,0,,128
2014-3-21,51,39,26,33,27,20,69,55,41,30.28,29.96,29.76,10,10,10,107,48,39,T,6,Rain,335
2014-3-22,31,24,16,19,9,3,80,56,31,30.59,30.46,30.29,10,10,10,20,12,26,0.00,2,,346
2014-3-23,39,23,6,12,8,4,83,55,27,30.60,30.48,30.32,10,10,10,13,5,24,0.00,3,,173
2014-3-24,43,32,21,24,16,12,85,59,33,30.32,30.28,30.25,10,9,2,30,11,36,T,7,Snow,340
2014-3-25,37,27,17,20,7,-4,92,56,20,30.44,30.33,30.18,10,10,10,25,12,33,0.00,1,,325
2014-3-26,69,44,18,40,22,2,76,51,25,30.14,29.78,29.53,10,10,6,41,23,54,0.00,3,,169
2014-3-27,45,38,30,43,37,27,100,89,78,29.87,29.50,29.37,10,6,0,32,16,39,0.07,8,Rain-Snow-Thunderstorm,283
2014-3-28,37,29,20,27,24,18,92,81,70,30.31,30.12,29.89,10,10,10,14,7,19,0.00,4,,340
2014-3-29,55,36,17,31,25,16,92,65,38,30.35,30.23,30.00,10,9,0,23,9,28,0.00,0,Fog,200
2014-3-30,75,57,38,36,33,30,70,46,22,29.99,29.80,29.58,10,8,4,25,15,36,0.00,0,,165
2014-3-31,73,48,23,41,26,11,70,48,25,29.84,29.58,29.30,10,10,8,40,23,50,T,5,Snow,257